Regional Weather Roundup
Issued by NWS

Home | Current Version | Previous Version | Graphics & Text | Print | Product List | Glossary On
Versions: 1 2 3 4 5 6 7 8 9 10 11 12 13 14 15 16 17 18 19 20 21 22 23 24 25 26 27 28 29 30 31 32 33 34 35 36 37 38 39 40 41 42 43 44 45 46 47 48 49 50
000
ASUS43 KOAX 252010
RWRNE

WEATHER ROUNDUP FOR NEBRASKA
NATIONAL WEATHER SERVICE OMAHA NE
200 PM CST SUN FEB 25 2018

NOTES: SATELLITE DATA IS BEING USED TO AUGMENT CLOUD COVER ABOVE
       12000 FEET.
       "FAIR" INDICATES FEW OR NO CLOUDS BELOW 12,000 FEET WITH NO
       SIGNIFICANT WEATHER AND/OR OBSTRUCTIONS TO VISIBILITY.


NEZ001>004-019>022-054>056-252100-
NEBRASKA PANHANDLE

CITY           SKY/WX    TMP DP  RH WIND       PRES   REMARKS
SCOTTSBLUFF    MOSUNNY   37  14  38 W25G32    29.85F WCI  25
ALLIANCE       SUNNY     33  18  53 W16       29.85S WCI  23
CHADRON        SUNNY     34  15  46 W5        29.84F WCI  30
GORDON         FAIR      33  15  47 W13       29.84R WCI  23
KIMBALL        PTSUNNY   34  13  41 W23       29.87S WCI  22
SIDNEY         MOSUNNY   41   8  25 NW22G32   29.88F
$$

NEZ057>060-069>072-079>082-252100-
SOUTHWEST NEBRASKA

CITY           SKY/WX    TMP DP  RH WIND       PRES   REMARKS
NORTH PLATTE   SUNNY     39  19  44 W15       29.92F WCI  31
IMPERIAL       SUNNY     43  13  29 NW16G22   29.92F
LEXINGTON      SUNNY     44  18  34 W17       29.94F
MCCOOK         SUNNY     46  14  27 W21       29.94F
OGALLALA       SUNNY     41  17  38 W16G23    29.90S
$$

NEZ005>010-023>029-035>040-094-252100-
NORTH CENTRAL NEBRASKA

CITY           SKY/WX    TMP DP  RH WIND       PRES   REMARKS
VALENTINE      SUNNY     35  18  49 W10       29.86S WCI  27
AINSWORTH      MOSUNNY   34  20  55 W6        29.87S WCI  29
BROKEN BOW     SUNNY     36  21  54 W8        29.91F WCI  30
O`NEILL        PTSUNNY   33  21  60 S6        29.90S WCI  28
ORD            SUNNY     40  21  46 W13       29.91S WCI  32
THEDFORD       SUNNY     38  19  46 W13G18    29.89S WCI  30
$$

NEZ041-046>049-061>064-073>077-083>087-252100-
SOUTH CENTRAL NEBRASKA

CITY           SKY/WX    TMP DP  RH WIND       PRES   REMARKS
GRAND ISLAND   SUNNY     46  19  34 W21       29.93F
AURORA         SUNNY     46  22  38 W16       29.93F
HASTINGS       SUNNY     47  14  26 W18G31    29.94F
HEBRON         MOSUNNY   49  18  30 SW8G17    29.99S
HOLDREGE       SUNNY     48  15  26 W22G28    29.93F
KEARNEY        SUNNY     46  13  26 W18G29    29.94F
YORK           SUNNY     45  27  49 SW8       29.95F
$$

NEZ011>018-030>034-042>045-252100-
NORTHEAST NEBRASKA

CITY           SKY/WX    TMP DP  RH WIND       PRES   REMARKS
NORFOLK        SUNNY     38  20  48 SW8       29.91F WCI  32
ALBION         SUNNY     39  22  50 SW6       29.93R
BLAIR          SUNNY     37  23  58 SW7       29.97F WCI  31
COLUMBUS       SUNNY     36  21  54 S8        29.97S WCI  30
FREMONT        SUNNY     37  24  57 S7        29.98F WCI  32
TEKAMAH        SUNNY     34  25  69 S12       29.99R WCI  25
WAYNE          SUNNY     36  18  49 W6        29.93S WCI  31
$$

NEZ050>053-065>068-078-088>093-252100-
SOUTHEAST NEBRASKA

CITY           SKY/WX    TMP DP  RH WIND       PRES   REMARKS
LINCOLN        MOSUNNY   45  28  51 SW12      29.99F
OMAHA EPPLEY   PTSUNNY   40  23  50 S5        29.99F
BEATRICE       MOSUNNY   46  27  47 SW13      29.99F
FALLS CITY     SUNNY     48  24  39 SW15G23   30.02F
NEBRASKA CITY  MOSUNNY   42  31  65 SW16      29.99F
PLATTSMOUTH    MOSUNNY   40  30  67 S6        30.00S
$$

NEZ044-045-051>053-067-252100-
OMAHA AREA

CITY           SKY/WX    TMP DP  RH WIND       PRES   REMARKS
OMAHA EPPLEY   PTSUNNY   40  23  50 S5        29.99F
BLAIR          SUNNY     37  23  58 SW7       29.97F WCI  31
FREMONT        SUNNY     37  24  57 S7        29.98F WCI  32
MILLARD        MOSUNNY   41  26  57 S7        30.00S
OFFUTT AFB     MOSUNNY   39  27  61 S8        30.00S WCI  34
PLATTSMOUTH    MOSUNNY   40  30  67 S6        30.00S
WAHOO          FAIR      38  23  55 SW7       29.99S WCI  33
$$




USA.gov is the U.S. government's official web portal to all federal, state and local government web resources and services.